[[{"header":{"parameterUnit":"m.s-1","parameterCategory":1,"la1":30.2991,"la2":30.254,"lo1":-89.0895,"lo2":-89.0444,"dx":0.0017,"dy":0.0017,"nx":28,"ny":28,"refTime":"2022-11-16T15:00:00:Z","depth":0,"parameterNumber":2,"parameterNumberName":"U-component_of_WINDS"},"data":[0,0,0,0,0,0,0,0,0,0,0,0,0,0,0,0,0,0,0,0,0,0,0,0,0,0,0,0,0,0,0,0,0,0,0,0,0,0,0,0,0,0,0,0,0,0,0,0,0,0,0,0,0,0,0,0,0,0,-0.9527,-0.9528,0,-0.9574,-0.9574,-0.9575,-0.9548,-0.9547,-0.9545,-0.9544,-0.9593,-0.9596,-0.9598,0,0,0,0,0,0,0,0,0,0,0,0,0,-0.9417,-0.9419,-0.9527,-0.9528,-0.9528,-0.9574,-0.9574,-0.9575,-0.9548,-0.9547,-0.9545,-0.9544,-0.9593,-0.9596,-0.9599,0,0,0,0,0,0,0,0,0,0,0,0,0,-0.9464,-0.942,-0.9527,-0.9521,-0.952,-0.9573,-0.9574,-0.9575,-0.9549,-0.9547,-0.9545,-0.9543,-0.9592,-0.9595,-0.9599,-0.9662,0,0,-0.9611,-0.9612,0,0,0,0,0,0,0,0,-0.9462,-0.9468,-0.9521,-0.9521,-0.9521,-0.9553,-0.9553,-0.9604,-0.9549,-0.9538,-0.9544,-0.9542,-0.9582,-0.9586,-0.9599,-0.9664,-0.9666,-0.9611,-0.9613,-0.9615,-0.9616,0,0,0,0,0,0,0,-0.9458,-0.9466,-0.9546,-0.9522,-0.9522,-0.9516,-0.952,-0.9563,-0.957,-0.9539,-0.9537,-0.9543,-0.9581,-0.9596,-0.96,-0.9667,-0.9611,-0.9614,-0.9617,-0.9618,-0.9785,-0.9787,0,0,0,0,0,0,-0.9455,-0.9464,-0.9544,-0.9547,-0.9486,-0.9519,-0.9524,-0.9545,-0.957,-0.9572,-0.9544,-0.9541,-0.959,-0.9596,-0.9602,-0.9677,-0.9615,-0.9619,-0.9621,-0.9783,-0.9786,-0.9788,0,0,0,0,0,0,-0.9453,-0.9463,-0.9542,-0.9505,-0.9515,-0.9523,-0.9546,-0.9547,-0.9561,-0.9574,-0.9575,-0.9558,-0.9589,-0.9597,-0.9647,-0.9679,-0.962,-0.9624,-0.9781,-0.9784,-0.9787,-0.9828,0,0,0,0,0,0,-0.945,-0.9462,-0.9486,-0.9506,-0.9517,-0.9587,-0.9548,-0.9549,-0.9567,-0.9564,-0.9587,-0.9589,-0.9588,-0.9641,-0.9651,-0.9683,-0.9627,-0.9778,-0.9782,-0.9786,-0.9824,-0.9833,-0.984,0,0,0,0,0,-0.9446,-0.9496,-0.9487,-0.9497,-0.9546,-0.9588,-0.9595,-0.9592,-0.957,-0.9594,-0.9602,-0.9588,-0.9673,-0.9647,-0.9657,-0.9691,-0.9776,-0.9781,-0.9786,-0.9821,-0.9831,-0.984,0,0,0,0,0,0,-0.9481,-0.9499,-0.9489,-0.9547,-0.9566,-0.9584,-0.9614,-0.9603,-0.963,-0.9626,-0.9622,-0.9627,-0.968,-0.969,-0.966,-0.9752,-0.9721,-0.9728,-0.9744,-0.9754,-0.9762,-0.9759,-0.963,0,0,0,0,0,-0.9495,-0.9528,-0.9541,-0.9591,-0.9601,-0.9606,-0.9624,-0.962,-0.9641,-0.9649,-0.9661,-0.9681,-0.9713,-0.9734,-0.9763,-0.9825,-0.983,-0.9853,-0.9861,-0.9867,-0.9874,-0.9907,-0.9918,-0.9804,-0.9804,-0.9804,0,0,-0.9526,-0.9539,-0.956,-0.9598,-0.9613,-0.9647,-0.9613,-0.9651,-0.9676,-0.9655,-0.9703,-0.9712,-0.9735,-0.9791,-0.9817,-0.9802,-0.9906,-0.9873,-0.9878,-0.9882,-0.9913,-0.9924,-0.9934,-0.9807,-0.9807,-0.9806,0,0,-0.9599,-0.9612,-0.9655,-0.9669,-0.9692,-0.9694,-0.9704,-0.9723,-0.9729,-0.9777,-0.9762,-0.9791,-0.9845,-0.9862,-0.9878,-0.9955,-0.9943,-0.9965,-1.0006,-1.0039,-1.0048,-1.0056,-1.0084,-1.0095,-0.9971,-0.9971,-0.9971,0,-0.9634,-0.9684,-0.9678,-0.9717,-0.9734,-0.9715,-0.9759,-0.9774,-0.9805,-0.9817,-0.9799,-0.9866,-0.988,-0.994,-0.9959,-0.9972,-0.9984,-0.9963,-1.0047,-1.0055,-1.0062,-1.0089,-1.01,-0.9974,-0.9973,-0.9973,-0.9973,0,-0.9726,-0.9761,-0.9793,-0.9823,-0.9844,-0.9884,-0.9885,-0.9907,-0.9901,-0.9905,-0.9955,-0.997,-1.0003,-1.0016,-1.0011,-1.0075,-1.0065,-1.0047,-1.0016,-1.0076,-1.0101,-1.0112,-0.9977,-0.9977,-0.9976,-0.9975,0,0,-0.9825,-0.9849,-0.9862,-0.9875,-0.9897,-0.9924,-0.9963,-0.9994,-1.0013,-1.0034,-1.0068,-1.0113,-1.0096,-1.0114,-1.011,-1.0139,-1.02,-1.0117,-1.0118,-1.0133,-1.0273,-1.0287,-1.0299,-1.0191,-1.0193,-1.0194,-1.0271,0,-0.99,-0.9969,-0.9965,-1.003,-1.0062,-1.0044,-1.0078,-1.0096,-1.0101,-1.0129,-1.0134,-1.0167,-1.0141,-1.0152,-1.0179,-1.0187,-1.0228,-1.0181,-1.0223,-1.0225,-1.022,-1.0313,-1.0329,-1.04,-1.0281,-1.0282,-1.0284,0,-0.9998,-1.0022,-1.009,-1.0107,-1.012,-1.0151,-1.0179,-1.0206,-1.0225,-1.0226,-1.0245,-1.0236,-1.0277,-1.0242,-1.0298,-1.0266,-1.0283,-1.0289,-1.0291,-1.0297,-1.0259,-1.0322,-1.0423,-1.0434,-1.0299,-1.0298,-1.0297,0,-1.0064,-1.0113,-1.0161,-1.0172,-1.0193,-1.0215,-1.0225,-1.0241,-1.026,-1.0284,-1.0296,-1.0324,-1.0341,-1.0363,-1.0362,-1.0337,-1.0418,-1.0384,-1.0422,-1.0422,-1.0441,-1.0441,-1.0548,-1.0449,-1.0449,-1.0449,-1.0449,0,-1.015,-1.0193,-1.0191,-1.022,-1.0267,-1.0261,-1.0308,-1.0315,-1.0331,-1.0361,-1.0346,-1.0375,-1.0371,-1.04,-1.0399,-1.0446,-1.0453,-1.0456,-1.0456,-1.0458,-1.0458,-1.0471,-1.0466,-1.0452,-1.0451,-1.0451,-1.045,0,-1.0233,-1.0234,-1.0284,-1.0298,-1.0303,-1.0337,-1.035,-1.0378,-1.038,-1.0419,-1.0428,-1.0432,-1.0466,-1.0466,-1.0505,-1.0504,-1.0561,-1.0554,-1.0555,-1.0554,-1.0592,-1.0589,-1.0713,-1.0729,-1.0618,-1.0619,-1.062,0,-1.0289,-1.0321,-1.0339,-1.0358,-1.0369,-1.04,-1.0418,-1.0413,-1.0433,-1.0456,-1.0481,-1.0513,-1.0538,-1.0592,-1.0599,-1.0628,-1.0623,-1.0664,-1.0628,-1.0629,-1.0625,-1.0624,-1.0628,-1.0673,-1.0674,-1.0675,-1.0676,0,-1.0388,-1.0386,-1.0413,-1.044,-1.0463,-1.0484,-1.0503,-1.052,-1.0516,-1.0539,-1.0573,-1.0592,-1.0631,-1.0663,-1.0691,-1.0701,-1.0688,-1.0687,-1.0697,-1.0701,-1.0701,-1.0703,-1.0576,-1.0684,-1.0684,-1.0683,-1.0682,-1.0682,-1.046,-1.0488,-1.0505,-1.0535,-1.0549,-1.0567,-1.0594,-1.0599,-1.0627,-1.0658,-1.0652,-1.069,-1.0707,-1.0743,-1.0755,-1.0785,-1.0771,-1.0785,-1.079,-1.0794,-1.0799,-1.0694,-1.079,-1.0789,-1.0789,-1.0789,-1.0789,0,-1.056,-1.0569,-1.0597,-1.0624,-1.0648,-1.0632,-1.0653,-1.0674,-1.0707,-1.0724,-1.0749,-1.0787,-1.0817,-1.0826,-1.0855,-1.0877,-1.0872,-1.0885,-1.0885,-1.0887,-1.0809,-1.0798,-1.0889,-1.0889,-1.0889,-1.0889,-1.0889,-1.0889,-1.0614,-1.0661,-1.0661,-1.0714,-1.0723,-1.0759,-1.0772,-1.0789,-1.0802,-1.0846,-1.0871,-1.0875,-1.0889,-1.0919,-1.0946,-1.0948,-1.096,-1.0976,-1.0975,-1.0903,-1.0893,-1.0883,-1.0873,-1.0978,-1.0978,-1.1051,-1.1052,-1.1053]},{"header":{"parameterUnit":"m.s-1","parameterCategory":1,"la1":30.2991,"la2":30.254,"lo1":-89.0895,"lo2":-89.0444,"dx":0.0017,"dy":0.0017,"nx":28,"ny":28,"refTime":"2022-11-16T15:00:00:Z","depth":0,"parameterNumber":3,"parameterNumberName":"V-component_of_WINDS"},"data":[0,0,0,0,0,0,0,0,0,0,0,0,0,0,0,0,0,0,0,0,0,0,0,0,0,0,0,0,0,0,0,0,0,0,0,0,0,0,0,0,0,0,0,0,0,0,0,0,0,0,0,0,0,0,0,0,0,0,-7.7689,-7.769,0,-7.7811,-7.7812,-7.7814,-7.7741,-7.7738,-7.7734,-7.7731,-7.7849,-7.7856,-7.7862,0,0,0,0,0,0,0,0,0,0,0,0,0,-7.7387,-7.7393,-7.7689,-7.769,-7.7692,-7.7811,-7.7812,-7.7814,-7.7742,-7.7738,-7.7733,-7.7729,-7.7847,-7.7855,-7.7862,0,0,0,0,0,0,0,0,0,0,0,0,0,-7.7515,-7.7395,-7.7688,-7.767,-7.767,-7.781,-7.7812,-7.7814,-7.7743,-7.7737,-7.7732,-7.7727,-7.7845,-7.7854,-7.7864,-7.8027,0,0,-7.7893,-7.7897,0,0,0,0,0,0,0,0,-7.7507,-7.7526,-7.7671,-7.7672,-7.7672,-7.7756,-7.7749,-7.7885,-7.7744,-7.7715,-7.7731,-7.7725,-7.7822,-7.7833,-7.7867,-7.8032,-7.8037,-7.7894,-7.7899,-7.7904,-7.7906,0,0,0,0,0,0,0,-7.7499,-7.752,-7.7737,-7.7674,-7.7674,-7.7654,-7.7666,-7.7775,-7.7796,-7.7717,-7.7712,-7.7728,-7.7821,-7.7858,-7.7869,-7.8039,-7.7893,-7.7902,-7.7908,-7.7912,-7.8345,-7.835,0,0,0,0,0,0,-7.7492,-7.7513,-7.7733,-7.774,-7.7575,-7.7664,-7.7678,-7.7734,-7.7795,-7.7799,-7.7732,-7.7724,-7.7844,-7.7858,-7.7873,-7.8069,-7.7904,-7.7912,-7.7918,-7.8339,-7.8346,-7.8352,0,0,0,0,0,0,-7.7486,-7.7512,-7.7728,-7.7626,-7.7652,-7.7675,-7.7738,-7.7739,-7.7776,-7.7806,-7.7809,-7.7767,-7.7841,-7.786,-7.799,-7.8072,-7.7917,-7.7926,-7.8332,-7.8341,-7.8349,-7.8462,0,0,0,0,0,0,-7.7478,-7.7511,-7.7574,-7.7628,-7.7657,-7.7845,-7.7743,-7.7745,-7.7794,-7.7784,-7.7839,-7.7843,-7.7838,-7.7976,-7.7999,-7.8083,-7.7933,-7.8325,-7.8336,-7.8346,-7.8451,-7.8473,-7.8493,0,0,0,0,0,-7.7467,-7.7599,-7.7578,-7.7605,-7.7738,-7.785,-7.7866,-7.786,-7.7801,-7.7864,-7.7883,-7.7842,-7.8059,-7.799,-7.8016,-7.8103,-7.832,-7.8333,-7.8346,-7.8442,-7.8469,-7.8492,0,0,0,0,0,0,-7.7552,-7.7606,-7.7583,-7.7737,-7.779,-7.7837,-7.7917,-7.7889,-7.7957,-7.7945,-7.7932,-7.7945,-7.8081,-7.8104,-7.8026,-7.8264,-7.818,-7.8199,-7.8244,-7.8271,-7.8291,-7.8282,-7.7941,0,0,0,0,0,-7.759,-7.7678,-7.7719,-7.7851,-7.7879,-7.7894,-7.7942,-7.7933,-7.7986,-7.8007,-7.8036,-7.8087,-7.8167,-7.822,-7.8295,-7.8454,-7.8465,-7.8527,-7.8547,-7.8564,-7.8581,-7.8667,-7.8695,-7.8395,-7.8395,-7.8394,0,0,-7.7667,-7.7707,-7.7763,-7.7869,-7.7909,-7.8,-7.7913,-7.8012,-7.8078,-7.8021,-7.8147,-7.817,-7.8226,-7.8371,-7.8437,-7.8395,-7.8666,-7.8581,-7.8594,-7.8601,-7.8683,-7.8712,-7.8737,-7.8404,-7.8402,-7.8401,0,0,-7.7853,-7.7893,-7.8008,-7.805,-7.8112,-7.8121,-7.8149,-7.8202,-7.8216,-7.8342,-7.8301,-7.8379,-7.8517,-7.8559,-7.8598,-7.8803,-7.8767,-7.8827,-7.8936,-7.902,-7.9044,-7.9065,-7.9138,-7.9164,-7.8843,-7.8843,-7.8844,0,-7.7941,-7.8077,-7.807,-7.8173,-7.8221,-7.8176,-7.8291,-7.8332,-7.8414,-7.8448,-7.84,-7.8574,-7.8608,-7.8763,-7.8814,-7.8847,-7.8877,-7.8821,-7.9041,-7.9062,-7.9082,-7.9151,-7.9179,-7.885,-7.885,-7.8849,-7.8848,0,-7.8182,-7.8277,-7.8362,-7.8447,-7.8503,-7.8612,-7.862,-7.8678,-7.8664,-7.8677,-7.8806,-7.8846,-7.8929,-7.8965,-7.8951,-7.9119,-7.9091,-7.9043,-7.8958,-7.9117,-7.9183,-7.9209,-7.886,-7.8858,-7.8856,-7.8854,0,0,-7.8426,-7.8506,-7.8537,-7.8575,-7.8641,-7.8714,-7.8819,-7.8903,-7.8954,-7.9012,-7.91,-7.9219,-7.9175,-7.922,-7.921,-7.9284,-7.9444,-7.9227,-7.9228,-7.9266,-7.9632,-7.9668,-7.9699,-7.9421,-7.9426,-7.943,-7.9627,0,-7.8617,-7.8806,-7.8802,-7.8976,-7.9064,-7.9023,-7.9115,-7.9165,-7.9181,-7.9256,-7.9271,-7.9356,-7.9292,-7.9319,-7.939,-7.941,-7.9517,-7.9395,-7.9501,-7.9505,-7.949,-7.9733,-7.9772,-7.9957,-7.9653,-7.9657,-7.966,0,-7.8866,-7.8936,-7.912,-7.9174,-7.9211,-7.9294,-7.9371,-7.9444,-7.9498,-7.9504,-7.9556,-7.9534,-7.964,-7.9553,-7.9698,-7.9615,-7.9658,-7.9674,-7.9681,-7.9691,-7.9593,-7.975,-8.0015,-8.0043,-7.97,-7.9697,-7.9694,0,-7.9027,-7.9166,-7.9295,-7.9328,-7.9394,-7.9454,-7.9484,-7.9534,-7.9585,-7.9651,-7.9684,-7.976,-7.9803,-7.9862,-7.9861,-7.9797,-8.0009,-7.992,-8.0016,-8.0016,-8.0062,-8.006,-8.0339,-8.0089,-8.0089,-8.0088,-8.0088,0,-7.9241,-7.9355,-7.9368,-7.9447,-7.9574,-7.9568,-7.9692,-7.9716,-7.9761,-7.9842,-7.981,-7.9887,-7.9881,-7.9958,-7.9958,-8.0079,-8.0098,-8.0105,-8.0103,-8.0108,-8.0108,-8.0137,-8.0124,-8.0096,-8.0094,-8.0093,-8.0091,0,-7.9442,-7.9455,-7.9593,-7.9645,-7.9661,-7.9752,-7.9795,-7.9869,-7.9882,-7.9986,-8.001,-8.003,-8.0119,-8.0124,-8.0226,-8.0226,-8.0373,-8.0357,-8.0356,-8.0353,-8.0449,-8.044,-8.0757,-8.0798,-8.0521,-8.0524,-8.0526,0,-7.9579,-7.9666,-7.9729,-7.9783,-7.9817,-7.9903,-7.9956,-7.9953,-8.0009,-8.0078,-8.0144,-8.0231,-8.03,-8.0444,-8.0467,-8.0544,-8.053,-8.0636,-8.0542,-8.0544,-8.0533,-8.0528,-8.0537,-8.0654,-8.0657,-8.066,-8.0662,0,-7.982,-7.9823,-7.9901,-7.9983,-8.0047,-8.011,-8.0169,-8.0214,-8.0218,-8.0282,-8.0374,-8.0428,-8.0534,-8.062,-8.0697,-8.0725,-8.0695,-8.0692,-8.0718,-8.0724,-8.072,-8.0724,-8.0407,-8.0684,-8.0682,-8.068,-8.0679,-8.0678,-7.9994,-8.007,-8.0127,-8.0215,-8.026,-8.0316,-8.0389,-8.0412,-8.049,-8.0578,-8.057,-8.0673,-8.0725,-8.0825,-8.0859,-8.0938,-8.0902,-8.0939,-8.0949,-8.0959,-8.097,-8.0708,-8.0951,-8.0951,-8.095,-8.095,-8.0949,0,-8.0234,-8.0269,-8.0351,-8.0436,-8.0505,-8.0473,-8.0536,-8.0596,-8.0687,-8.074,-8.081,-8.0916,-8.0999,-8.1029,-8.111,-8.1167,-8.1155,-8.1189,-8.1185,-8.1192,-8.0997,-8.0967,-8.1197,-8.1197,-8.1197,-8.1197,-8.1197,-8.1197,-8.0368,-8.0496,-8.0505,-8.0654,-8.0687,-8.079,-8.0829,-8.088,-8.0922,-8.1043,-8.1114,-8.1133,-8.1176,-8.126,-8.1335,-8.1341,-8.1373,-8.1412,-8.1413,-8.123,-8.1205,-8.1182,-8.1153,-8.1419,-8.1419,-8.1601,-8.1603,-8.1604]}]]